Location: Harwich
(41.7160°N, 69.9939°W)
Time: 09:48:48
(UTC+01:00)

X-37B - Pass Details

Date: 14 December 2022
Orbit: 277 x 277 km, 45.0° (Epoch: 01 November)

Event Time Altitude Azimuth Distance (km) Brightness Sun altitude
Rises 23:01:53 0° 283° (WNW) 1,915 5.1 -9.5°
Reaches altitude 10° 23:03:53 10° 293° (WNW) 1,102 3.6 -9.8°
Maximum altitude 23:06:11 34° 3° (N) 480 0.8 -10.2°
Enters shadow 23:07:31 19° 59° (ENE) 750 1.4 -10.4°
